Weather History for Washington, IA

Change the Weather History Date:

Wednesday, March 20, 2013

  Actual Average Record
Temperature  
Mean Temperature 22 °F -  
Max Temperature 28 °F 48 °F 78 °F (2012)
Min Temperature 15 °F 29 °F 15 °F (2013)
Degree Days  
Heating Degree Days 44    
Moisture  
Dew Point 11 °F    
Average Humidity 64    
Maximum Humidity 80    
Minimum Humidity 50    
Precipitation  
Precipitation 0.00 in - - ()
Sea Level Pressure  
Sea Level Pressure 30.20 in    
Wind  
Wind Speed 19 mph (NW)    
Max Wind Speed 29 mph    
Max Gust Speed 38 mph    
Visibility 10 miles    
Events      
Averages and records for this station are not official NWS values.
T = Trace of Precipitation, MM = Missing Value Source: NWS Daily Summary

Daily Weather History Graph

Daily Weather History Graph

Search for Another Location

Airport:

Trip Planner

Search our weather history database for the weather conditions in past years. The results will help you decide how hot, cold, wet, or windy it might be!

Date:

Astronomy

Mar. 20, 2013 Rise Set
Actual Time 7:09 AM CDT 7:19 PM CDT
Civil Twilight 6:42 AM CDT 7:46 PM CDT
Nautical Twilight 6:09 AM CDT 8:19 PM CDT
Astronomical Twilight 5:37 AM CDT 8:51 PM CDT
Moon 12:51 PM CDT (3/20) 2:52 AM CDT (3/20)
Length of Visible Light 13h 04m
Length of Day
12h 09m
First Quarter, 59% of the Moon is Illuminated
Mar 20
First Quarter
Mar 27
Full
Apr 2
Last Quarter
Apr 10
New
Apr 18
First Quarter

Hourly Weather History & Observations

Time (CDT) Temp. Windchill Dew Point Humidity Pressure Visibility Wind Dir Wind Speed Gust Speed Precip Events Conditions
12:15 AM 28.4 °F 17.5 °F 21.2 °F 74% 30.18 in 10.0 mi NW 13.8 mph 21.9 mph N/A   Scattered Clouds
12:35 AM 26.6 °F 13.1 °F 21.2 °F 80% 30.18 in 10.0 mi NW 19.6 mph - N/A   Clear
12:55 AM 26.6 °F 13.4 °F 19.4 °F 74% 30.19 in 10.0 mi NNW 18.4 mph 27.6 mph N/A   Mostly Cloudy
1:15 AM 24.8 °F 11.9 °F 15.8 °F 69% 30.20 in 10.0 mi NW 16.1 mph 24.2 mph N/A   Overcast
1:35 AM 21.2 °F 6.0 °F 15.8 °F 80% 30.21 in 10.0 mi NW 19.6 mph 24.2 mph N/A   Scattered Clouds
1:55 AM 19.4 °F 5.0 °F 12.2 °F 74% 30.22 in 10.0 mi NNW 16.1 mph 25.3 mph N/A   Clear
2:15 AM 19.4 °F 4.1 °F 10.4 °F 68% 30.22 in 10.0 mi NW 18.4 mph - N/A   Clear
2:35 AM 19.4 °F 4.5 °F 10.4 °F 68% 30.23 in 10.0 mi NW 17.3 mph 24.2 mph N/A   Clear
2:55 AM 17.6 °F 0.1 °F 10.4 °F 73% 30.23 in 10.0 mi NW 23.0 mph 29.9 mph N/A   Clear
3:15 AM 17.6 °F 1.7 °F 10.4 °F 73% 30.23 in 10.0 mi NW 18.4 mph 25.3 mph N/A   Clear
3:35 AM 17.6 °F 1.7 °F 10.4 °F 73% 30.23 in 10.0 mi NW 18.4 mph 24.2 mph N/A   Clear
3:55 AM 17.6 °F 1.3 °F 10.4 °F 73% 30.23 in 10.0 mi NW 19.6 mph 27.6 mph N/A   Clear
4:15 AM 17.6 °F 1.3 °F 10.4 °F 73% 30.23 in 10.0 mi NW 19.6 mph 26.5 mph N/A   Clear
4:35 AM 15.8 °F -1.1 °F 10.4 °F 79% 30.23 in 10.0 mi NW 19.6 mph 25.3 mph N/A   Clear
4:55 AM 15.8 °F 1.4 °F 10.4 °F 79% 30.24 in 10.0 mi NW 13.8 mph 24.2 mph N/A   Clear
5:15 AM 15.8 °F -1.1 °F 10.4 °F 79% 30.24 in 10.0 mi NW 19.6 mph 27.6 mph N/A   Clear
5:35 AM 15.8 °F -0.6 °F 10.4 °F 79% 30.24 in 10.0 mi NW 18.4 mph 27.6 mph N/A   Clear
5:55 AM 15.8 °F -0.2 °F 10.4 °F 79% 30.24 in 10.0 mi NW 17.3 mph - N/A   Scattered Clouds
6:15 AM 15.8 °F -0.2 °F 10.4 °F 79% 30.25 in 10.0 mi NW 17.3 mph 24.2 mph N/A   Mostly Cloudy
6:35 AM 15.8 °F -1.9 °F 8.6 °F 73% 30.25 in 10.0 mi NW 21.9 mph 31.1 mph N/A   Mostly Cloudy
6:55 AM 15.8 °F -3.4 °F 8.6 °F 73% 30.25 in 10.0 mi NW 26.5 mph 36.8 mph N/A   Scattered Clouds
7:15 AM 15.8 °F -2.3 °F 6.8 °F 68% 30.26 in 10.0 mi NW 23.0 mph 29.9 mph N/A   Clear
7:35 AM 15.8 °F 2.1 °F 6.8 °F 68% 30.27 in 10.0 mi NW 12.7 mph 23.0 mph N/A   Clear
7:55 AM 15.8 °F -0.2 °F 6.8 °F 68% 30.26 in 10.0 mi WNW 17.3 mph 26.5 mph N/A   Clear
8:15 AM 17.6 °F -0.6 °F 6.8 °F 63% 30.26 in 10.0 mi WNW 25.3 mph 29.9 mph N/A   Clear
8:35 AM 17.6 °F -0.3 °F 6.8 °F 63% 30.27 in 10.0 mi NW 24.2 mph 31.1 mph N/A   Clear
8:55 AM 17.6 °F -1.0 °F 5.0 °F 58% 30.26 in 10.0 mi NW 26.5 mph 33.4 mph N/A   Clear
9:15 AM 17.6 °F 0.5 °F 6.8 °F 63% 30.26 in 10.0 mi NW 21.9 mph 31.1 mph N/A   Clear
9:35 AM 19.4 °F 1.4 °F 6.8 °F 58% 30.27 in 10.0 mi NW 26.5 mph 32.2 mph N/A   Clear
9:55 AM 19.4 °F 2.1 °F 6.8 °F 58% 30.26 in 10.0 mi NW 24.2 mph 31.1 mph N/A   Clear
10:15 AM 21.2 °F 5.2 °F 6.8 °F 54% 30.26 in 10.0 mi NW 21.9 mph 38.0 mph N/A   Clear
10:55 AM 23.0 °F 6.9 °F 8.6 °F 54% 30.25 in 10.0 mi WNW 24.2 mph 28.8 mph N/A   Clear
11:15 AM 23.0 °F 8.0 °F 8.6 °F 54% 30.25 in 10.0 mi NW 20.7 mph 29.9 mph N/A   Clear
11:35 AM 24.8 °F 9.0 °F 10.4 °F 54% 30.25 in 10.0 mi NW 25.3 mph 33.4 mph N/A   Clear
11:55 AM 24.8 °F 8.7 °F 10.4 °F 54% 30.25 in 10.0 mi WNW 26.5 mph 32.2 mph N/A   Scattered Clouds
12:15 PM 24.8 °F 9.3 °F 10.4 °F 54% 30.24 in 10.0 mi NW 24.2 mph 35.7 mph N/A   Clear
12:35 PM 24.8 °F 9.3 °F 8.6 °F 50% 30.24 in 10.0 mi NW 24.2 mph 31.1 mph N/A   Clear
12:55 PM 24.8 °F 8.1 °F 8.6 °F 50% 30.24 in 10.0 mi NW 28.8 mph 35.7 mph N/A   Clear
1:15 PM 26.6 °F 10.8 °F 10.4 °F 51% 30.23 in 10.0 mi NW 27.6 mph 31.1 mph N/A   Clear
1:35 PM 26.6 °F 12.0 °F 10.4 °F 51% 30.21 in 10.0 mi WNW 23.0 mph 34.5 mph N/A   Clear
1:55 PM 26.6 °F 12.4 °F 10.4 °F 51% 30.21 in 10.0 mi NW 21.9 mph 29.9 mph N/A   Scattered Clouds
2:15 PM 26.6 °F 11.4 °F 10.4 °F 51% 30.20 in 10.0 mi WNW 25.3 mph 33.4 mph N/A   Scattered Clouds
2:35 PM 26.6 °F 12.0 °F 10.4 °F 51% 30.19 in 10.0 mi WNW 23.0 mph 32.2 mph N/A   Mostly Cloudy
2:55 PM 26.6 °F 12.4 °F 12.2 °F 55% 30.19 in 10.0 mi West 21.9 mph 29.9 mph N/A   Mostly Cloudy
3:15 PM 26.6 °F 12.4 °F 12.2 °F 55% 30.18 in 10.0 mi WNW 21.9 mph 28.8 mph N/A   Mostly Cloudy
3:35 PM 26.6 °F 12.4 °F 10.4 °F 51% 30.18 in 10.0 mi WNW 21.9 mph 29.9 mph N/A   Mostly Cloudy
3:55 PM 26.6 °F 12.7 °F 10.4 °F 51% 30.17 in 10.0 mi WNW 20.7 mph 29.9 mph N/A   Mostly Cloudy
4:15 PM 26.6 °F 13.1 °F 12.2 °F 55% 30.17 in 10.0 mi NW 19.6 mph 24.2 mph N/A   Overcast
4:35 PM 26.6 °F 13.4 °F 12.2 °F 55% 30.17 in 10.0 mi NW 18.4 mph 31.1 mph N/A   Mostly Cloudy
4:55 PM 28.4 °F 15.8 °F 12.2 °F 51% 30.16 in 10.0 mi NW 18.4 mph 27.6 mph N/A   Mostly Cloudy
5:15 PM 26.6 °F 11.7 °F 10.4 °F 51% 30.16 in 10.0 mi NW 24.2 mph 31.1 mph N/A   Mostly Cloudy
5:35 PM 26.6 °F 11.4 °F 12.2 °F 55% 30.16 in 10.0 mi NW 25.3 mph 28.8 mph N/A   Mostly Cloudy
5:55 PM 26.6 °F 13.1 °F 12.2 °F 55% 30.16 in 10.0 mi WNW 19.6 mph 25.3 mph N/A   Scattered Clouds
6:15 PM 26.6 °F 13.4 °F 12.2 °F 55% 30.16 in 10.0 mi NW 18.4 mph 28.8 mph N/A   Scattered Clouds
6:35 PM 24.8 °F 9.3 °F 10.4 °F 54% 30.15 in 10.0 mi NW 24.2 mph 29.9 mph N/A   Scattered Clouds
6:55 PM 24.8 °F 13.4 °F 12.2 °F 59% 30.16 in 10.0 mi NW 12.7 mph 20.7 mph N/A   Scattered Clouds
7:15 PM 24.8 °F 11.1 °F 10.4 °F 54% 30.15 in 10.0 mi NW 18.4 mph 28.8 mph N/A   Scattered Clouds
7:35 PM 23.0 °F 12.4 °F 12.2 °F 63% 30.15 in 10.0 mi NW 10.4 mph - N/A   Scattered Clouds
7:55 PM 23.0 °F 10.6 °F 12.2 °F 63% 30.14 in 10.0 mi NW 13.8 mph 19.6 mph N/A   Clear
8:15 PM 21.2 °F 10.1 °F 12.2 °F 68% 30.14 in 10.0 mi NW 10.4 mph - N/A   Clear
8:35 PM 21.2 °F 8.9 °F 12.2 °F 68% 30.14 in 10.0 mi WNW 12.7 mph 18.4 mph N/A   Clear
8:55 PM 21.2 °F 8.9 °F 12.2 °F 68% 30.14 in 10.0 mi NW 12.7 mph - N/A   Clear
9:15 PM 21.2 °F 10.1 °F 12.2 °F 68% 30.13 in 10.0 mi WNW 10.4 mph - N/A   Clear
9:35 PM 21.2 °F 9.5 °F 12.2 °F 68% 30.13 in 10.0 mi NW 11.5 mph - N/A   Clear
9:55 PM 21.2 °F 10.1 °F 12.2 °F 68% 30.13 in 10.0 mi NW 10.4 mph - N/A   Clear
10:15 PM 21.2 °F 9.5 °F 12.2 °F 68% 30.13 in 10.0 mi NW 11.5 mph - N/A   Clear
10:35 PM 21.2 °F 10.1 °F 12.2 °F 68% 30.13 in 10.0 mi NW 10.4 mph - N/A   Clear
10:55 PM 19.4 °F 8.6 °F 12.2 °F 74% 30.13 in 10.0 mi NNW 9.2 mph - N/A   Clear
11:15 PM 19.4 °F 7.2 °F 12.2 °F 74% 30.14 in 10.0 mi NNW 11.5 mph - N/A   Clear
11:35 PM 19.4 °F 7.2 °F 12.2 °F 74% 30.13 in 10.0 mi NNW 11.5 mph - N/A   Clear
11:55 PM 19.4 °F 7.2 °F 12.2 °F 74% 30.13 in 10.0 mi NNW 11.5 mph - N/A   Clear